AirNav   ProFlight Series 2 Aviation Headset
 
 368 users online  

H19 Bowling Green Municipal Airport
Bowling Green, Missouri, USA

GOING TO BOWLING GREEN?


FAA INFORMATION EFFECTIVE 16 JULY 2020

Location

FAA Identifier: H19
Lat/Long: 39-22-11.7000N 091-13-09.4000W
39-22.195000N 091-13.156667W
39.3699167,-91.2192778
(estimated)
Elevation: 886 ft. / 270.1 m (surveyed)
Variation: 01E (2000)
From city: 2 miles NW of BOWLING GREEN, MO
Time zone: UTC -5 (UTC -6 during Standard Time)
Zip code: 63334

Airport Operations

Airport use: Open to the public
Activation date: 09/1941
Control tower: no
ARTCC: KANSAS CITY CENTER
FSS: SAINT LOUIS FLIGHT SERVICE STATION
NOTAMs facility: STL (NOTAM-D service available)
Attendance: CONTINUOUS
Wind indicator: lighted
Segmented circle: yes
Lights: DUSK-DAWN. ACTVT LIRL RY 13/31 AFT 2100 - CTAF.
Beacon: white-green (lighted land airport)
Operates sunset to sunrise.

Airport Communications

CTAF/UNICOM: 122.8
  • UNICOM NOT MONITORED ON REGULAR BASIS.
  • APCH/DEP SVC PRVDD BY KANSAS CITY ARTCC ON FREQS 126.225/317.775 (QUINCY RCAG).

Nearby radio navigation aids

VOR radial/distance  VOR name  Freq  Var
UINr170/28.8QUINCY VORTAC113.6005E

Airport Services

Fuel available: 100LL
Parking: tiedowns
Bottled oxygen: NONE
Bulk oxygen: NONE

Runway Information

Runway 13/31

Dimensions: 3203 x 50 ft. / 976 x 15 m
Surface: asphalt, in good condition
Weight bearing capacity: 
Single wheel: 12.5
Runway edge lights: low intensity
RWY 13/31 NSTD LIRL; INCORRECT NUMBER OF THLD LGTS AT EACH RWY END, AMBER/WHITE SPLIT LENS MISSING LAST 1602 FT OF EACH RWY.
RUNWAY 13  RUNWAY 31
Latitude: 39-22.380445N39-22.010728N
Longitude: 091-13.398625W091-12.913770W
Elevation: 872.5 ft.886.0 ft.
Traffic pattern: leftleft
Runway heading: 133 magnetic, 134 true313 magnetic, 314 true
Markings: nonprecision, in good conditionnonprecision, in good condition
Touchdown point: yes, no lightsyes, no lights
Obstructions: 39 ft. trees, 423 ft. from runway, 158 ft. right of centerline, 5:1 slope to clear30 ft. trees, 250 ft. from runway, 130 ft. left of centerline, 1:1 slope to clear
RWY 31 +1-3 FT HI GND; 0-200 FT FROM RWY END 35-250 FT LEFT; +1-4 FT HIGH GND, 0-100 FT FM RWY END, 78-250 FT L. ROAD 184 FT FROM RY END, 175 FT L.

Airport Ownership and Management from official FAA records

Ownership: Publicly-owned
Owner: CITY OF BOWLING GREEN
16 W CHURCH ST
BOWLING GREEN, MO 63334
Phone 573-324-5451
Manager: JAKE MCDONALD
16 W CHURCH ST
BOWLING GREEN, MO 63334
Phone (573) 213-2174
AIRPORT PHONE (830) 423-2169

Airport Operational Statistics

Aircraft based on the field: 9
Single engine airplanes: 8
Multi engine airplanes: 1
    
Aircraft operations: avg 49/week *
76% local general aviation
20% transient general aviation
2% military
2% air taxi
* for 12-month period ending 31 December 2017

Additional Remarks

DO NOT OVERFLY PRISON AREA.
FOR CD CTC KANSAS CITY ARTCC AT 913-254-8508.

Instrument Procedures

NOTE: All procedures below are presented as PDF files. If you need a reader for these files, you should download the free Adobe Reader.

NOT FOR NAVIGATION. Please procure official charts for flight.
FAA instrument procedures published for use from 16 July 2020 at 0901Z to 13 August 2020 at 0900Z.

 
IAPs - Instrument Approach Procedures
RNAV (GPS) RWY 13   download (198KB)
RNAV (GPS) RWY 31   download (195KB)
NOTE: Special Take-Off Minimums/Departure Procedures apply   download (158KB)

Other nearby airports with instrument procedures:

KHAE - Hannibal Regional Airport (24 nm NW)
KPPQ - Pittsfield Penstone Municipal Airport (26 nm NE)
K52 - Cpt Ben Smith Airfield - Monroe City (28 nm NW)
KMYJ - Mexico Memorial Airport (31 nm SW)
KUIN - Quincy Regional Airport-Baldwin Field (34 nm N)
 
Loc | Ops | Rwys | IFR | FBO | Links
Com | Nav | Svcs | Stats | Notes
Area around H19 (Bowling Green Municipal Airport)
 
Road maps at: MapQuest Bing Google
 
Aerial photo
WARNING: Photo may not be current or correct
Aerial photo of H19 (Bowling Green Municipal Airport)
Taken in January 2008

Do you have a better or more recent aerial photo of Bowling Green Municipal Airport that you would like to share? If so, please send us your photo.

 
Sectional chart

 
Airport distance calculator
Flying to Bowling Green Municipal Airport? Find the distance to fly.

From to H19

Sunrise and sunset
Times for 09-Aug-2020
 Local
(UTC-5)
 Zulu
(UTC)
Morning civil twilight05:4510:45
Sunrise06:1411:14
Sunset20:0601:06
Evening civil twilight20:3601:36

Current date and time
Zulu (UTC)  09-Aug-2020 07:30:14
Local (UTC-5)  09-Aug-2020 02:30:14
 
METAR
KHAE 
24nm NW 
090715Z AUTO 14005KT 7SM BKN036 BKN045 23/22 A3004 RMK AO2 LTG DSNT SE THRU W
KPPQ 
26nm NE 
090715Z AUTO 16003KT 10SM BKN050 OVC070 23/23 A3007 RMK AO2 LTG DSNT S AND SW T02250225
KMYJ 
31nm SW 
090715Z AUTO 14010G21KT 122V192 2 1/2SM TS SCT006 BKN014 OVC042 21/21 A3004 RMK AO2 P0030 LTG DSNT ALQS
KUIN 
35nm N 
090654Z AUTO 14011KT 10SM FEW008 OVC046 23/21 A3005 RMK AO2 SLP168 T02280211
KI63 
42nm NE 
090715Z AUTO 17009KT 10SM -RA SCT042 SCT048 BKN055 23/22 A3005 RMK AO2 LTG DSNT S T02250217
KSET 
45nm SE 
090719Z AUTO 18003KT 8SM VCTS -RA FEW110 22/21 A3005 RMK AO2 LTG DSNT ALQDS TSE13 P0003 T02170206
TAF
KUIN 
35nm N 
090539Z 0906/1006 16009KT P6SM SCT070 FM090800 16009KT P6SM VCTS BKN070CB FM091300 18010KT P6SM OVC050 FM100100 15007KT P6SM SCT060
NOTAMs
Click for the latest NOTAMs
NOTAMs are issued by the DoD/FAA and will open in a separate window not controlled by AirNav.

 

 
 

FBO, Fuel Providers, and Aircraft Ground Support

  
 Business Name 
 
 Contact 
 
 Services / Description 
 
Fuel Prices
 
Comments
  
City of Bowling Green 573-324-5451
no information available

If you are affiliated with City of Bowling Green and would like to show here your services, contact info, web link, logo, and more, click here
100LL
SS $3.44 
 Updated 16-Jul-2020
 
   write
SS=Self service
Update Fuel Prices
 

Would you like to see your business listed on this page?

 If your business provides an interesting product or service to pilots, flight crews, aircraft, or users of the Bowling Green Municipal Airport, you should consider listing it here.  To start the listing process, click on the button below
 
Add a business
 

Other Pages about Bowling Green Municipal Airport

Update a link
 
Copyright © AirNav, LLC. All rights reserved. Privacy Policy  Contact